Theta_e
273 274 276 279 280 279 279 279 280 280 281 281 281 281 281 281 281 281 282 282 282 281 283 284 285 286 286 287 288 290 290 292 292 286 283 283 283 285 285 285 285 286 287
270 273 276 279 279 278 279 279 280 280 281 281 281 281 281 281 281 278 279 281 280 280 281 283 284 285 285 286 285 287 289 290 288 286 282 280 281 281 281 282 283 284 285
270 271 273 273 277 278 278 279 280 280 280 281 281 280 281 281 282 281 280 280 280 281 282 281 282 283 283 285 285 285 287 287 288 286 282 280 279 279 279 280 280 280 282
271 269 270 270 277 278 278 279 279 280 280 280 281 280 281 282 282 282 278 279 280 281 281 280 280 280 281 283 283 284 285 285 286 285 282 280 279 278 279 278 278 278 279
267 267 269 270 275 274 278 279 280 280 280 281 280 281 281 282 282 281 277 278 278 279 280 280 280 280 282 284 283 283 283 284 284 283 281 280 279 277 277 279 279 277 277
266 267 267 268 270 271 271 271 273 272 272 272 271 272 274 277 283 282 278 274 276 277 277 279 280 279 280 282 283 283 285 283 283 282 281 280 280 280 279 279 276 276 277
269 271 272 272 273 273 274 273 271 271 272 271 271 272 273 273 283 282 281 274 273 274 277 278 279 280 279 278 281 282 281 283 283 281 281 281 279 279 279 277 277 277 276
272 273 275 274 275 275 274 272 272 273 273 274 274 275 276 278 282 282 281 277 277 277 277 277 277 278 279 279 279 279 279 280 281 279 278 278 279 279 279 279 277 273 273
274 274 274 275 275 275 274 273 273 274 275 275 277 276 276 277 281 282 281 277 278 277 278 278 278 277 281 281 279 278 277 277 279 283 284 284 283 282 280 278 276 276 274
276 276 276 275 275 273 274 274 275 275 277 277 277 276 277 276 280 281 282 277 276 276 277 278 280 280 281 281 277 278 275 275 276 274 275 276 277 278 279 277 275 275 274
277 277 277 276 275 275 275 275 274 274 275 273 274 275 275 276 277 280 281 280 276 276 277 275 276 280 281 282 281 276 276 277 275 272 272 271 272 274 274 274 273 273 272
276 276 275 273 275 275 271 271 270 270 270 270 271 273 275 276 278 279 281 281 281 276 276 275 275 279 280 280 279 280 279 276 271 269 269 269 270 271 270 271 272 271 272
273 273 272 271 274 274 270 270 270 269 270 271 273 273 274 275 274 280 281 281 280 277 277 278 281 281 281 279 280 281 275 270 268 266 267 268 268 268 267 268 268 267 267
273 273 272 271 272 271 274 273 272 270 271 272 271 273 273 273 274 273 273 272 276 276 276 274 277 279 279 278 272 275 272 270 269 268 267 269 268 266 266 266 266 266 265
273 273 274 274 272 273 273 273 273 274 274 272 273 273 271 271 273 278 275 270 269 275 273 266 267 268 269 270 270 271 270 269 268 268 267 268 267 266 266 265 264 262 263
271 272 273 274 274 273 272 273 278 279 279 280 281 278 272 279 281 280 281 281 282 282 271 268 267 269 271 271 270 270 269 270 270 269 267 266 266 266 266 266 264 262 260
269 270 272 273 275 275 272 272 271 272 281 281 282 282 282 281 281 282 282 283 283 282 275 273 274 273 272 273 273 271 270 270 271 271 270 269 268 267 267 266 265 264 265
268 270 271 272 273 274 276 275 273 268 267 269 276 280 280 280 280 280 280 280 272 271 266 270 273 269 272 270 268 267 268 269 270 269 268 268 269 267 266 266 266 266 267
269 270 270 271 272 274 274 273 273 273 272 272 270 274 272 276 276 276 277 272 270 269 268 267 269 267 266 265 265 264 262 263 265 266 266 267 269 270 270 270 270 271 271
270 271 270 270 270 271 272 272 272 272 271 271 271 270 270 270 269 270 270 270 270 270 270 270 270 269 269 268 269 269 268 270 271 271 271 271 271 271 270 269 268 267 267
270 269 268 268 268 268 267 268 269 269 269 269 269 270 274 270 270 270 270 270 270 269 269 269 269 269 270 270 270 270 270 269 269 268 268 267 266 263 262 262 261 260 259
269 268 266 264 263 263 263 264 264 264 266 267 268 269 273 269 269 269 269 269 269 270 270 270 269 270 269 268 267 266 266 265 265 263 261 260 259 260 261 261 261 261 259
264 263 262 262 263 263 262 263 263 263 265 266 266 266 266 266 266 267 267 267 267 267 267 266 265 264 263 262 261 260 260 261 261 259 259 257 256 255 255 254 253 253 253
261 259 258 258 259 258 258 257 256 258 257 257 258 259 262 264 264 264 265 265 264 264 263 263 263 262 260 259 258 258 258 258 256 256 255 253 253 253 252 253 253 253 252
257 257 256 255 254 254 255 255 255 253 253 254 256 255 255 258 260 260 260 260 261 260 260 259 259 259 259 258 257 254 254 260 254 253 251 252 253 253 253 253 253 253 252
254 254 253 253 253 252 252 254 255 255 255 256 255 256 256 257 258 257 259 257 258 257 257 257 257 257 256 257 256 257 257 262 259 257 253 253 255 256 256 256 256 257 256
Wind_Speed
4 3 4 4 4 3 4 5 6 6 7 8 8 8 10 10 11 9 9 9 10 11 10 11 12 10 8 7 5 6 6 7 8 2 1 2 2 2 3 5 6 5 9
4 4 4 5 4 6 6 4 4 7 6 7 7 8 8 8 9 7 9 9 10 11 11 10 11 6 8 6 4 6 6 5 2 5 2 1 1 2 2 2 3 5 6
3 4 4 4 5 6 4 4 4 6 6 6 6 6 7 8 8 8 8 9 8 9 8 8 9 9 7 3 3 6 2 4 1 1 2 1 1 1 1 2 3 2 3
4 3 4 4 5 5 5 5 5 6 5 5 4 5 6 7 6 7 5 7 7 6 5 6 6 7 9 7 4 5 3 2 3 2 2 1 1 0 0 2 2 0 1
3 4 5 5 5 3 5 4 5 4 4 4 4 4 5 5 4 6 4 5 6 7 5 5 4 7 11 12 3 3 3 1 3 1 1 1 1 2 3 3 2 2 0
4 5 5 4 4 4 4 4 4 4 4 4 4 4 5 3 10 10 7 4 5 6 6 5 4 6 8 10 9 9 8 3 1 1 2 3 3 3 2 2 3 3 2
5 6 5 4 5 5 5 4 4 4 3 4 5 4 6 6 10 9 8 2 3 4 6 6 6 4 6 5 9 10 10 11 7 1 2 2 2 3 3 3 2 2 1
6 6 6 5 5 5 4 4 4 4 4 4 4 4 5 6 10 11 10 4 4 4 5 5 5 6 7 6 5 7 8 8 7 4 4 2 3 1 2 1 3 5 3
7 7 6 6 5 5 6 5 4 3 3 4 4 5 5 5 10 10 8 5 4 5 4 5 5 5 12 10 5 5 5 5 8 14 12 11 8 4 4 4 2 2 2
8 8 6 7 7 6 6 5 4 3 5 4 6 5 6 6 10 10 7 2 4 3 5 4 8 7 10 10 4 3 3 4 5 5 3 5 7 4 4 1 2 1 1
6 7 7 7 7 7 6 5 5 5 5 5 7 6 6 7 8 11 9 3 2 3 3 3 3 9 10 10 9 2 1 1 5 2 3 3 2 3 3 2 2 1 1
7 8 7 7 7 5 6 5 4 4 5 6 6 8 5 6 9 11 11 10 8 2 3 2 3 9 10 10 6 7 5 4 3 3 3 2 1 1 1 1 2 3 2
7 8 7 6 7 7 6 6 4 4 5 7 6 6 7 4 4 11 12 12 11 5 2 6 11 10 10 6 9 9 3 1 1 0 2 2 2 1 0 1 1 1 4
9 9 5 6 8 7 7 6 7 5 7 7 6 7 7 5 5 3 4 3 6 4 6 4 5 8 10 9 4 5 2 2 2 2 2 2 1 1 1 1 1 1 2
10 7 8 7 7 8 8 8 9 9 10 6 7 6 5 5 4 8 5 3 3 5 4 1 1 1 2 3 3 4 3 2 2 3 3 3 2 2 3 3 3 2 2
10 7 6 6 6 5 6 7 17 21 19 21 22 14 3 12 14 14 13 14 15 15 2 3 3 3 4 4 4 3 2 4 3 3 1 2 2 2 3 4 3 2 2
10 10 7 7 7 6 4 6 7 5 16 20 21 21 20 18 17 18 18 17 17 14 5 4 5 4 4 4 4 3 3 3 2 2 2 3 2 2 2 2 2 1 2
10 11 7 6 6 6 6 5 3 2 3 3 8 13 12 14 14 14 14 12 4 5 2 4 5 2 1 2 2 1 2 2 1 2 2 2 2 2 2 2 2 2 2
8 6 5 5 6 6 4 5 5 4 3 3 2 4 4 8 8 11 12 2 3 2 2 1 1 0 1 1 2 2 1 2 2 1 2 2 2 2 3 3 4 6 6
7 10 6 5 5 4 4 4 4 3 3 2 2 2 2 2 2 2 2 1 1 1 1 2 2 2 2 2 2 2 2 2 2 1 1 1 1 1 1 1 1 1 2
6 5 7 5 5 4 3 4 4 4 4 3 3 3 7 2 2 2 1 2 2 2 2 2 2 2 2 2 2 3 3 2 2 2 2 2 2 1 2 2 2 2 2
7 6 5 4 3 4 4 3 3 3 3 4 3 4 10 4 4 3 3 3 2 2 2 2 2 2 1 0 1 1 1 1 1 2 2 1 1 1 2 2 2 2 1
5 5 5 4 4 5 4 4 4 4 4 4 4 4 4 3 3 3 3 3 2 3 2 2 2 2 2 2 1 2 3 3 3 3 2 1 1 1 1 1 1 1 1
5 5 4 4 4 4 4 4 4 4 4 3 3 3 3 4 5 5 5 4 4 4 3 3 3 5 3 3 3 3 3 3 3 3 5 3 3 3 2 2 2 3 3
4 5 4 4 4 4 4 4 4 4 4 4 4 4 3 4 5 5 5 5 5 5 6 5 5 6 9 9 8 7 6 8 5 5 3 4 5 5 4 3 4 3 3
3 4 3 3 4 4 3 4 5 5 5 5 5 5 6 6 7 7 7 6 6 6 8 5 7 10 10 9 9 10 9 11 8 8 5 4 5 5 4 5 6 4 4
Wind_Direction
273 287 283 282 282 282 271 268 273 284 285 279 282 298 302 296 298 288 283 279 279 282 277 271 268 259 258 258 255 257 265 252 248 127 241 38 294 307 45 28 34 13 8
254 264 285 285 288 284 284 277 285 286 289 294 299 292 287 293 290 282 286 288 289 285 286 282 281 274 259 254 260 283 278 255 202 268 62 145 82 344 13 84 13 31 34
251 261 280 290 279 290 281 283 289 288 290 288 298 302 297 289 288 283 280 286 285 289 292 293 294 293 282 246 244 265 318 279 79 178 236 179 57 206 345 22 64 32 39
254 262 276 272 286 300 300 289 288 278 295 302 305 305 299 298 302 312 291 291 297 294 302 307 311 313 318 315 281 276 257 192 181 152 184 164 153 228 81 202 152 28 84
257 265 265 268 275 288 288 290 282 299 296 304 308 302 297 313 313 339 329 321 325 325 326 328 322 335 346 9 328 312 321 11 33 81 140 236 176 203 206 175 139 136 203
229 250 255 265 269 257 265 271 287 289 293 295 293 287 303 288 323 341 357 332 337 334 328 323 321 329 348 359 15 35 38 10 314 206 183 219 198 210 171 174 120 147 221
220 243 243 232 248 255 258 271 282 277 275 287 284 292 302 294 327 336 335 261 297 312 323 328 330 336 341 343 4 29 41 54 58 29 313 262 267 205 150 164 149 63 101
237 235 228 224 234 242 247 255 264 266 269 264 275 281 292 299 320 332 329 303 287 272 278 294 307 332 342 360 357 14 16 20 39 66 76 22 296 1 72 82 100 86 48
237 238 230 220 228 232 244 249 251 257 279 278 272 278 281 290 306 319 332 317 305 312 314 329 342 348 355 12 2 8 6 8 6 30 61 87 107 124 122 113 106 140 172
245 242 224 218 218 226 232 240 244 241 266 270 281 273 273 275 290 295 313 294 297 301 304 315 333 347 359 10 14 346 353 340 353 356 14 42 44 64 81 43 156 238 71
244 239 231 221 221 225 232 230 232 245 266 275 278 271 257 258 270 277 283 283 267 295 301 294 299 318 333 346 4 15 349 288 327 351 359 2 0 12 32 31 56 83 132
249 242 233 220 219 218 212 229 225 220 247 260 269 279 262 254 243 264 273 270 275 230 261 260 281 307 312 312 324 323 337 353 344 338 336 285 265 255 212 89 48 61 40
272 254 242 231 222 218 210 219 222 216 233 256 253 263 275 265 244 260 270 271 275 271 220 257 289 300 303 318 308 300 308 228 254 73 266 266 272 292 359 18 21 150 166
284 275 248 238 241 225 226 217 223 217 231 241 242 250 258 263 259 241 239 259 273 275 278 284 280 291 287 281 281 281 275 246 211 205 218 260 217 155 228 229 8 338 20
299 282 270 258 236 240 226 222 224 227 219 223 236 232 233 254 246 255 233 235 235 245 255 291 284 256 254 257 263 251 241 243 255 275 300 291 233 185 204 187 177 184 182
310 297 279 272 258 236 236 255 245 245 242 247 252 245 233 251 271 269 266 268 273 274 288 238 260 258 262 260 252 253 227 216 220 204 244 276 292 299 305 332 9 31 330
311 306 296 289 287 261 239 237 264 279 261 256 256 258 258 259 261 264 268 270 272 276 261 255 261 256 255 252 244 231 239 233 205 202 198 212 212 226 254 267 267 234 270
315 301 293 282 277 291 297 265 245 235 250 272 273 259 266 274 277 276 277 283 311 299 247 251 258 246 300 324 334 324 331 342 292 258 251 234 235 223 267 271 256 222 239
315 312 306 313 316 314 307 311 309 292 286 285 311 303 307 288 294 288 277 251 240 243 262 283 257 309 336 334 313 322 314 301 299 319 298 283 279 245 270 262 257 251 253
328 326 333 325 323 333 334 317 300 304 300 313 323 332 15 347 307 285 251 271 303 302 316 308 296 272 241 237 258 259 269 272 265 268 299 357 351 326 313 306 299 301 316
331 335 346 349 358 352 349 1 356 356 356 357 353 336 316 321 319 354 334 284 268 257 260 269 295 285 267 267 265 263 256 247 235 219 213 229 228 227 245 241 243 239 234
353 352 352 346 341 353 353 352 353 357 357 2 351 344 9 6 358 353 347 350 341 326 307 294 276 280 304 2 13 350 333 327 6 64 76 43 32 5 17 16 359 346 336
348 349 355 356 0 3 2 5 9 7 2 5 0 352 356 348 334 326 321 314 311 301 297 288 285 290 283 269 244 217 229 248 240 198 197 237 287 281 223 232 253 302 302
349 354 357 349 359 357 1 352 346 354 341 333 329 318 318 318 312 304 298 294 289 284 279 279 272 262 261 256 250 242 239 250 223 210 183 183 223 251 237 228 224 232 237
353 352 355 349 351 343 343 339 335 327 318 312 311 301 291 293 289 280 275 270 269 265 264 257 253 254 257 257 255 246 245 255 229 214 193 190 205 209 215 209 219 236 241
347 343 329 333 331 326 324 316 308 305 301 293 287 281 277 278 277 273 277 270 269 262 261 255 257 257 259 259 253 252 246 249 239 230 198 195 212 222 211 218 231 223 229